Regional Weather Roundup
Issued by NWS

Home | Current Version | Previous Version | Graphics & Text | Print | Product List | Glossary On
Versions: 1 2 3 4 5 6 7 8 9 10 11 12 13 14 15 16 17 18 19 20 21 22 23 24 25 26 27 28 29 30 31 32 33 34 35 36 37 38 39 40 41 42 43 44 45 46 47 48 49 50
000
ASUS43 KMKX 290421
RWRWI

WISCONSIN REGIONAL WEATHER ROUNDUP
NATIONAL WEATHER SERVICE MILWAUKEE/SULLIVAN WI
1100 PM CDT SAT MAY 28 2016

NOTE: "FAIR" INDICATES FEW OR NO CLOUDS BELOW 12,000 FEET WITH NO
SIGNIFICANT WEATHER AND/OR OBSTRUCTIONS TO VISIBILITY.

WIZ001-002-006>008-014>016-023>028-290500-
NORTHWEST WISCONSIN

CITY           SKY/WX    TMP DP  RH WIND       PRES   REMARKS
SUPERIOR ARPT  CLOUDY    51  51 100 CALM      29.81R
ASHLAND        CLOUDY    55  54  96 NE3       29.80S
HAYWARD        CLOUDY    63  59  87 VRB3      29.79S
SIREN          MOCLDY    60  59  96 CALM      29.79F
CUMBERLAND     CLOUDY    61  59  94 CALM      29.79S
RICE LAKE      CLOUDY    62  60  93 CALM      29.81R
CHETEK         FOG       61  61 100 CALM      29.80R VSB 1/2
LADYSMITH      CLOUDY    61  60  96 E6        29.81S
EAU CLAIRE     PTCLDY    61  59  93 SW6       29.79R
MENOMONIE      PTCLDY    62  62  99 S7        29.80R
NEW RICHMOND   MOCLDY    62  61  99 W5        29.81R
OSCEOLA        CLOUDY    62  62 100 CALM      29.83R
$$

WIZ003>005-009-010-017-018-290500-
NORTH CENTRAL WISCONSIN

CITY           SKY/WX    TMP DP  RH WIND       PRES   REMARKS
MANITOWISH WTR NOT AVBL
ARBOR VITAE    CLOUDY    62  60  92 S6        29.84R
WOODRUFF       CLOUDY    62  60  92 S6        29.84R
RHINELANDER    LGT RAIN  66  60  81 S7        29.83S
EAGLE RIVER      N/A     65  63  94 SE5       29.82S
LAND O LAKES   RAIN      63  63 100 CALM      29.84R
PHILLIPS       LGT RAIN  60  60 100 N3        29.79F
TOMAHAWK       CLOUDY    62  60  91 CALM      29.82R
MEDFORD        MOCLDY    61  61 100 S3        29.81S
MERRILL        CLOUDY    67  63  86 S6        29.82S
$$

WIZ029-030-035-036-043>047-290500-
CENTRAL WISCONSIN

CITY           SKY/WX    TMP DP  RH WIND       PRES   REMARKS
WAUSAU         CLOUDY    68  62  81 S9        29.81R
MOSINEE        CLOUDY    63  63 100 S9        29.84R
MARSHFIELD     CLOUDY    66  61  84 S9        29.82R
STEVENS POINT  MOCLDY    64  61  89 S8        29.85R
WAUPACA        CLOUDY    65  64  95 SE6       29.87R
WAUTOMA        MOCLDY    64  63  96 S9        29.88R
WISC RAPIDS    MOCLDY    65  61  87 S8        29.85R
CAMP DOUGLAS   PTCLDY    65  65 100 S7        29.84R
$$

WIZ011>013-019>022-031-037>040-048>050-290500-
NORTHEAST WISCONSIN

CITY           SKY/WX    TMP DP  RH WIND       PRES   REMARKS
ANTIGO         CLOUDY    62  61  97 S8        29.84R
SHAWANO        CLOUDY    65  62  88 S5        29.86R
OCONTO         CLOUDY   N/A N/A N/A S6        29.84R
STURGEON BAY   NOT AVBL
GREEN BAY      CLOUDY    65  60  84 S10       29.87R
MANITOWOC      LGT RAIN  64  61  90 SE7       29.90F
APPLETON       PTCLDY    64  63  94 S12       29.86R
CLINTONVILLE   CLOUDY    63  61  94 S9        29.86R
OSHKOSH        CLOUDY    64  61  90 S9        29.89R
$$

WIZ032>034-041-042-053>061-290500-
SOUTHWEST WISCONSIN

CITY           SKY/WX    TMP DP  RH WIND       PRES   REMARKS
LA CROSSE      CLOUDY    65  62  90 S6        29.82R
SPARTA         CLOUDY    64  63  94 CALM      29.84R
VIROQUA        CLOUDY    64  63  94 SW8       29.86R
BOSCOBEL       PTCLDY    67  61  81 S6        29.86R
PRAIRIE DU CHI CLEAR     66  59  78 CALM      29.84S
PLATTEVILLE    PTCLDY    65  62  89 SW6       29.90R
$$

WIZ056-057-062-063-064-067-068-290500-
SOUTH CENTRAL WISCONSIN

CITY           SKY/WX    TMP DP  RH WIND       PRES   REMARKS
REEDSBURG      CLOUDY    65  64  95 S6        29.87R
BARABOO/DELLS  CLOUDY    65  62  89 S5        29.89R
LONE ROCK      MOCLDY    68  64  87 E6        29.88R
MINERAL POINT  MOCLDY    66  63  88 S3        29.90R
MADISON        CLOUDY    67  63  87 S6        29.90R
MIDDLETON      CLOUDY    67  65  93 SE3       29.90S
WATERTOWN      CLOUDY    64  64  98 SE8       29.91S
MONROE         CLOUDY    68  63  83 S7        29.91R
JANESVILLE     CLOUDY    68  66  94 S7        29.92R
$$

WIZ051-052-058>065-066-070>072-290500-
SOUTHEAST WISCONSIN

CITY           SKY/WX    TMP DP  RH WIND       PRES   REMARKS
MILWAUKEE      LGT RAIN  67  63  87 SW13      29.94S
WAUKESHA       RAIN      63  61  94 S8        29.95R
MILWAUKEE/TIMM RAIN      64  61  88 S9        29.95R
RACINE         LGT RAIN  66  62  87 SW9       29.96S
BURLINGTON     RAIN      64  63  97 S6        29.95R
KENOSHA        LGT RAIN  65  61  87 SW8       29.96R
FOND DU LAC    CLOUDY    65  62  90 S12       29.90R
SHEBOYGAN      LGT RAIN  63  60  90 S12       29.92S
WEST BEND      LGT RAIN  63  61  94 S5        29.93S
JUNEAU         CLOUDY    64  62  92 SE9       29.92S
$$

LSZ147-162-290500-
LAKE SUPERIOR

STATION/POSITION TIME  TEMP    WIND        PRES    WAVE
                       AIR SEA DIR/SP/G            HT/PER
                 (UTC) (F)     (DEG/KT/KT) (MB)    (FT/S)
W MID LAKE BUOY  0350   42 38  160/  6/ 10 1010.0R   1/ 3
DEVILS ISLAND    0400   45      60/  2/  2 1009.7F
PORT WING        0300   45     350/  3/  3 1009.5S
SAXON HARBOR     0300   52      CALM  /  3 1009.1S
$$

LMZ867-665-643>646-290500-
LAKE MICHIGAN

STATION/POSITION TIME  TEMP    WIND        PRES    WAVE
                       AIR SEA DIR/SP/G            HT/PER
                 (UTC) (F)     (DEG/KT/KT) (MB)    (FT/S)
CHAMBERS ISLAND  0300   68     170/  9/ 15 1010.8R
N MID LAKE BUOY  0350   52 46  190/ 12/ 14 1011.9R   3/ 6
NORTHPORT PIER   0300   59     160/  6/ 11 1011.2S
SISTER BAY       0305   64     170/ 18/ 21   N/A
ALGOMA LAKESHORE 0317          220/  9/ 11   N/A
KEWAUNEE LAKESHO 0300                      1011.5R
SHEBOYGAN LAKESH 0400   60     170/ 14/ 16 1013.5S
PORT WASHINGTON  0320   58     290/  2/ 20 1014.6R
S MID LAKE BUOY  0350   58 50  180/ 12/ 14 1013.7R   2/ 4
KENOSHA   LAKESH 0400   66     210/ 11/ 17 1014.2S
$$

TC  - TEMPERATURE IN CELSIUS
VSB - VISIBILITY IN STATUTE MILES
WCI - WIND CHILL INDEX
HX  - HEAT INDEX





USA.gov is the U.S. government's official web portal to all federal, state and local government web resources and services.